Regional Weather Roundup
Issued by NWS

Home | Current Version | Previous Version | Graphics & Text | Print | Product List | Glossary Off
Versions: 1 2 3 4 5 6 7 8 9 10 11 12 13 14 15 16 17 18 19 20 21 22 23 24 25 26 27 28 29 30 31 32 33 34 35 36 37 38 39 40 41 42 43 44 45 46 47 48 49 50

027
ASUS43 KMKX 291100
RWRWI

WISCONSIN REGIONAL WEATHER ROUNDUP
NATIONAL WEATHER SERVICE MILWAUKEE/SULLIVAN WI
600 AM CDT SAT APR 29 2017

NOTE: "FAIR" INDICATES FEW OR NO CLOUDS BELOW 12,000 FEET WITH NO
SIGNIFICANT WEATHER AND/OR OBSTRUCTIONS TO VISIBILITY.

WIZ001-002-006>008-014>016-023>028-291200-
NORTHWEST WISCONSIN

CITY           SKY/WX    TMP DP  RH WIND       PRES   REMARKS
SUPERIOR ARPT  CLEAR     24  23  96 CALM      30.22S
ASHLAND        CLEAR     28  23  81 N3        30.24R
HAYWARD        CLEAR     25  22  88 CALM      30.21R
SIREN          PTCLDY    27  26  94 CALM      30.21S
CUMBERLAND     CLOUDY    32  27  80 CALM      30.20R
RICE LAKE      CLOUDY    30  28  92 CALM      30.22R
CHETEK         CLOUDY    31  27  84 E3        30.21
LADYSMITH      MOCLDY    30  27  88 CALM      30.23R
EAU CLAIRE     NOT AVBL
MENOMONIE      CLOUDY    34  27  75 CALM      30.21F
NEW RICHMOND   CLOUDY    33  27  77 CALM      30.22R
OSCEOLA        MOCLDY    33  28  81 NE3       30.26R
$$

WIZ003>005-009-010-017-018-291200-
NORTH CENTRAL WISCONSIN

CITY           SKY/WX    TMP DP  RH WIND       PRES   REMARKS
MANITOWISH WTR NOT AVBL
ARBOR VITAE    CLOUDY    27  24  90 CALM      30.15S
WOODRUFF       CLOUDY    27  24  90 CALM      30.15S
RHINELANDER    CLOUDY    30  25  81 CALM      30.21R
EAGLE RIVER    CLEAR     26  22  85 CALM      30.15F
LAND O LAKES   CLEAR     30  24  78 N5        30.19R WCI  25
PHILLIPS       PTCLDY    28  25  89 CALM      30.18R
TOMAHAWK       CLOUDY    28  25  87 CALM      30.21R
MEDFORD        CLOUDY    30  25  83 E5        30.22R WCI  25
MERRILL        MOCLDY    30  27  90 CALM      30.23R
$$

WIZ029-030-035-036-043>047-291200-
CENTRAL WISCONSIN

CITY           SKY/WX    TMP DP  RH WIND       PRES   REMARKS
WAUSAU         PTCLDY    30  26  85 NE3       30.21R
MOSINEE        PTCLDY    28  27  93 NE3       30.24R
MARSHFIELD     CLOUDY    31  25  78 NE6       30.21R WCI  25
STEVENS POINT  CLEAR     29  25  86 N3        30.23F
WAUPACA        CLEAR     36  27  70 N5        30.23F WCI  32
WAUTOMA        PTCLDY    35  26  69 NE8       30.23F WCI  29
WISC RAPIDS    CLEAR     33  26  75 NE6       30.23F WCI  28
CAMP DOUGLAS   NOT AVBL
$$

WIZ011>013-019>022-031-037>040-048>050-291200-
NORTHEAST WISCONSIN

CITY           SKY/WX    TMP DP  RH WIND       PRES   REMARKS
ANTIGO         PTCLDY    30  25  83 E6        30.24R WCI  24
SHAWANO        CLEAR     34  28  80 N5        30.26R WCI  30
OCONTO         NOT AVBL
STURGEON BAY   CLEAR     34  26  72 N8        30.25R WCI  27
GREEN BAY      CLEAR     35  29  78 N9        30.24R WCI  28
MANITOWOC      NOT AVBL
APPLETON       NOT AVBL
CLINTONVILLE   CLEAR     34  28  80 N3        30.26R
OSHKOSH        CLOUDY    37  27  67 NE15      30.21R WCI  28
$$

WIZ032>034-041-042-053>061-291200-
SOUTHWEST WISCONSIN

CITY           SKY/WX    TMP DP  RH WIND       PRES   REMARKS
LA CROSSE      CLEAR     38  29  70 NE6       30.24R WCI  33
SPARTA         CLEAR     36  30  79 NE8       30.22S WCI  29
VIROQUA        CLEAR     36  32  84 NE8       30.17S WCI  30
BOSCOBEL       CLOUDY    42  33  70 VRB5      30.15S
PRAIRIE DU CHI CLOUDY    41  32  70 N5        30.12F
PLATTEVILLE    PTCLDY    43  37  79 NE9       30.13R
$$

WIZ056-057-062-063-064-067-068-291200-
SOUTH CENTRAL WISCONSIN

CITY           SKY/WX    TMP DP  RH WIND       PRES   REMARKS
REEDSBURG      NOT AVBL
BARABOO/DELLS  PTCLDY    38  31  77 NE10      30.17S WCI  30
LONE ROCK      NOT AVBL
MINERAL POINT  CLOUDY    43  34  70 NE13      30.13R
MADISON        MOCLDY    41  32  70 NE10      30.17R
MIDDLETON      PTCLDY    42  34  74 NE9       30.16R
WATERTOWN      PTCLDY    41  33  73 NE7G16    30.16R
MONROE         CLOUDY    43  34  70 NE16G25   30.14R
JANESVILLE     CLOUDY    45  34  65 NE12G17   30.15R
$$

WIZ051-052-058>065-066-070>072-291200-
SOUTHEAST WISCONSIN

CITY           SKY/WX    TMP DP  RH WIND       PRES   REMARKS
MILWAUKEE      CLOUDY    43  33  68 NE17G25   30.18R
WAUKESHA       MOCLDY    39  30  70 N8G16     30.18R WCI  34
MILWAUKEE/TIMM CLOUDY    41  30  65 NE14      30.17R
RACINE         CLOUDY    43  31  62 NE14      30.19R
KENOSHA        CLOUDY    43  31  62 NE14G21   30.16R
FOND DU LAC    CLOUDY    39  28  64 NE21      30.21R WCI  29
SHEBOYGAN      CLOUDY    37  31  78 N12G20    30.20R WCI  29
WEST BEND      PTCLDY    39  32  75 NE13      30.17R WCI  32
JUNEAU         CLOUDY    40  31  70 N8        30.18R WCI  34
$$

LSZ147-162-291200-
LAKE SUPERIOR

STATION/POSITION TIME  TEMP    WIND        PRES    WAVE
                       AIR SEA DIR/SP/G            HT/PER
                 (UTC) (F)     (DEG/KT/KT) (MB)    (FT/S)
DEVILS ISLAND    1000   36     300/  7/  8 1024.5F
PORT WING        0830   29     170/  4/  4 1024.0R
SAXON HARBOR     1040   27     190/  3/  4 1023.0S
$$

LMZ867-665-643>646-291200-
LAKE MICHIGAN

STATION/POSITION TIME  TEMP    WIND        PRES    WAVE
                       AIR SEA DIR/SP/G            HT/PER
                 (UTC) (F)     (DEG/KT/KT) (MB)    (FT/S)
CHAMBERS ISLAND  1030   36     340/  6/  8 1024.0R
N MID LAKE BUOY  0950   36 37  360/ 12/ 14 1022.8R   2/ 4
NORTHPORT PIER   1030   36      CALM  / 10 1025.4R
KEWAUNEE LAKESHO 1030   36     350/  7/ 11 1023.4R
SHEBOYGAN LAKESH 1000   40      20/ 22/ 24 1022.5R
PORT WASHINGTON  1040   41      20/ 10/ 18 1022.7R
MILWAUKEE LAKESH 1030   42      30/ 15/ 17   N/A
S MID LAKE BUOY  0950   42 41   20/ 16/ 19 1019.7R   2/ 4
KENOSHA   LAKESH 1000   43      30/ 22/ 26 1019.6
$$

TC  - TEMPERATURE IN CELSIUS
VSB - VISIBILITY IN STATUTE MILES
WCI - WIND CHILL INDEX
HX  - HEAT INDEX





USA.gov is the U.S. government's official web portal to all federal, state and local government web resources and services.